[[[{"header":{"parameterUnit":"kt","parameterCategory":2,"dx":1,"dy":1,"la1":30.253999710083008,"la2":30.299108505249023,"lo1":-89.0895004272461,"lo2":-89.04439544677734,"nx":28,"ny":28,"refTime":"2022-09-19T21:00:00:Z","depth":0,"parameterNumber":1,"parameterNumberName":"U-component_of_WINDS"},"data":[-2.3274,-2.341,-2.3386,-2.3532,-2.3535,-2.3632,-2.3659,-2.3692,-2.3712,-2.3826,-2.3887,-2.3877,-2.3888,-2.3958,-2.4024,-2.4018,-2.4051,-2.4119,-2.4101,-2.3815,-2.3774,-2.3735,-2.3701,-2.4125,-2.4126,-2.4403,-2.4405,-2.4407,-2.3076,-2.3081,-2.3149,-2.3199,-2.3258,-2.3179,-2.3213,-2.3269,-2.3357,-2.3381,-2.3438,-2.3536,-2.3611,-2.3597,-2.3665,-2.3732,-2.3699,-2.3753,-2.3749,-2.3753,-2.3445,-2.341,-2.3779,-2.3778,-2.3778,-2.3778,-2.3778,-2.3778,-2.2711,-2.2792,-2.2807,-2.288,-2.2897,-2.2932,-2.3006,-2.2989,-2.3056,-2.3121,-2.3076,-2.3176,-2.3195,-2.3262,-2.3278,-2.3357,-2.3293,-2.3344,-2.3358,-2.3373,-2.3395,-2.3009,-2.3366,-2.3365,-2.3364,-2.3363,-2.3362,0,-2.2436,-2.2409,-2.247,-2.2526,-2.2577,-2.2617,-2.2649,-2.2694,-2.2626,-2.2684,-2.2767,-2.281,-2.2895,-2.2971,-2.3027,-2.3032,-2.2957,-2.2943,-2.2979,-2.3006,-2.3024,-2.3022,-2.2527,-2.2934,-2.293,-2.2927,-2.2925,-2.2923,-2.2069,-2.2164,-2.2164,-2.2211,-2.222,-2.2297,-2.2337,-2.2268,-2.2315,-2.2345,-2.2421,-2.2493,-2.2548,-2.2684,-2.2663,-2.2728,-2.2692,-2.2851,-2.2701,-2.2723,-2.2701,-2.2698,-2.271,-2.2883,-2.2888,-2.2892,-2.2896,0,-2.1867,-2.182,-2.1958,-2.1946,-2.1946,-2.2051,-2.2042,-2.212,-2.2092,-2.2197,-2.2217,-2.2175,-2.2256,-2.2208,-2.229,-2.2263,-2.2444,-2.2404,-2.2439,-2.243,-2.2572,-2.2561,-2.3029,-2.3089,-2.2643,-2.2648,-2.2651,0,-2.1537,-2.1664,-2.1588,-2.167,-2.181,-2.1735,-2.1877,-2.1866,-2.1877,-2.1958,-2.186,-2.1939,-2.1862,-2.1935,-2.1894,-2.2032,-2.2045,-2.2035,-2.2023,-2.2046,-2.2048,-2.2073,-2.2055,-2.1985,-2.1983,-2.1981,-2.1979,0,-2.1228,-2.1331,-2.1464,-2.148,-2.1478,-2.1543,-2.1545,-2.1554,-2.1593,-2.1636,-2.1661,-2.1716,-2.1748,-2.1794,-2.1741,-2.1642,-2.1906,-2.1758,-2.1895,-2.1898,-2.1959,-2.1957,-2.2379,-2.1976,-2.1976,-2.1975,-2.1974,0,-2.0954,-2.0995,-2.1192,-2.1188,-2.1218,-2.1305,-2.1353,-2.1415,-2.1432,-2.1411,-2.1443,-2.1372,-2.1482,-2.1341,-2.1494,-2.138,-2.1418,-2.1416,-2.1425,-2.1435,-2.1279,-2.1531,-2.1934,-2.1977,-2.1442,-2.1438,-2.1434,0,-2.0616,-2.0799,-2.0734,-2.0923,-2.1001,-2.0885,-2.098,-2.0995,-2.0974,-2.1039,-2.1015,-2.1089,-2.0972,-2.0988,-2.107,-2.105,-2.1198,-2.1028,-2.1131,-2.1136,-2.1136,-2.1505,-2.1579,-2.185,-2.1376,-2.1382,-2.1386,0,-2.0347,-2.0337,-2.0375,-2.039,-2.0395,-2.0458,-2.0566,-2.062,-2.0668,-2.0693,-2.0785,-2.0884,-2.0802,-2.0829,-2.0775,-2.0863,-2.1096,-2.0762,-2.0762,-2.0829,-2.134,-2.1411,-2.1457,-2.1041,-2.1048,-2.1054,-2.134,0,-1.9954,-2.0036,-2.0134,-2.0166,-2.0205,-2.0317,-2.0259,-2.0308,-2.0252,-2.0225,-2.0356,-2.0353,-2.0409,-2.0444,-2.0389,-2.0604,-2.0561,-2.0471,-2.0331,-2.0572,-2.0666,-2.0703,-2.0197,-2.0193,-2.0189,-2.0186,0,0,-1.9645,-1.976,-1.9681,-1.978,-1.9809,-1.9683,-1.9809,-1.9822,-1.9852,-1.9876,-1.9797,-1.9938,-1.9938,-2.0104,-2.0173,-2.0194,-2.023,-2.0146,-2.0456,-2.0487,-2.0515,-2.0616,-2.0656,-2.0179,-2.0178,-2.0176,-2.0175,0,-1.9489,-1.9486,-1.9608,-1.9618,-1.9628,-1.9591,-1.9621,-1.9609,-1.9598,-1.9721,-1.9618,-1.9689,-1.98,-1.9817,-1.984,-2.0123,-2.0044,-2.0144,-2.0319,-2.042,-2.0456,-2.0487,-2.0594,-2.0632,-2.0166,-2.0166,-2.0167,0,-1.9217,-1.9206,-1.9257,-1.931,-1.9315,-1.9396,-1.9235,-1.9324,-1.9384,-1.9242,-1.9367,-1.9358,-1.9372,-1.9533,-1.9602,-1.9533,-1.9879,-1.9756,-1.9778,-1.9786,-1.9881,-1.9924,-1.9962,-1.9463,-1.9461,-1.9459,0,0,-1.9091,-1.9163,-1.9128,-1.9272,-1.9282,-1.9228,-1.9263,-1.9209,-1.9222,-1.9228,-1.9213,-1.9231,-1.9296,-1.934,-1.9397,-1.958,-1.958,-1.9672,-1.9705,-1.9732,-1.9755,-1.9858,-1.99,-1.945,-1.945,-1.945,0,0,-1.903,-1.8994,-1.8933,-1.9091,-1.9107,-1.9083,-1.9175,-1.91,-1.9143,-1.9124,-1.9038,-1.9039,-1.9187,-1.9181,-1.9077,-1.9347,-1.9209,-1.9233,-1.9346,-1.9387,-1.9419,-1.9419,-1.8912,0,0,0,0,0,-1.8838,-1.8998,-1.8943,-1.896,-1.9026,-1.9113,-1.9121,-1.9052,-1.8958,-1.9033,-1.9008,-1.8917,-1.9108,-1.9014,-1.9033,-1.9152,-1.9343,-1.9362,-1.938,-1.9568,-1.9612,-1.9648,0,0,0,0,0,0,-1.8844,-1.8865,-1.8939,-1.8922,-1.8936,-1.9106,-1.8931,-1.8917,-1.8948,-1.8929,-1.8925,-1.8917,-1.8861,-1.8999,-1.9018,-1.9131,-1.8905,-1.935,-1.9367,-1.9381,-1.9583,-1.9619,-1.9649,0,0,0,0,0,-1.8849,-1.8866,-1.8988,-1.8919,-1.8931,-1.8878,-1.8924,-1.8911,-1.8934,-1.8895,-1.8884,-1.8879,-1.8866,-1.8877,-1.901,-1.9125,-1.8892,-1.8899,-1.9361,-1.9374,-1.9385,-1.96,0,0,0,0,0,0,-1.8852,-1.8855,-1.8988,-1.899,-1.8852,-1.8867,-1.8867,-1.8907,-1.8897,-1.8888,-1.8845,-1.883,-1.8872,-1.8879,-1.8889,-1.9126,-1.8881,-1.8888,-1.8893,-1.9371,-1.9381,-1.9389,0,0,0,0,0,0,-1.8845,-1.8857,-1.8989,-1.8908,-1.8899,-1.8858,-1.8858,-1.8959,-1.8898,-1.8847,-1.8834,-1.8838,-1.8858,-1.8882,-1.8888,-1.9049,-1.8872,-1.8879,-1.8884,-1.8887,-1.9379,-1.9387,0,0,0,0,0,0,-1.8849,-1.8859,-1.8907,-1.8901,-1.8893,-1.8902,-1.8946,-1.9017,-1.8827,-1.8849,-1.8808,-1.88,-1.8864,-1.8869,-1.8889,-1.9048,-1.9049,-1.8872,-1.8877,-1.8881,-1.8883,0,0,0,0,0,0,0,-1.8852,-1.8801,-1.8981,-1.8895,-1.8887,-1.9001,-1.9002,-1.9002,-1.8825,-1.8818,-1.881,-1.8803,-1.8831,-1.8839,-1.8847,-1.9046,0,0,-1.8872,-1.8875,0,0,0,0,0,0,0,0,-1.8795,-1.8799,-1.8981,-1.8981,-1.8981,-1.9001,-1.9002,-1.9002,-1.8824,-1.8818,-1.8812,-1.8806,-1.8833,-1.884,-1.8846,0,0,0,0,0,0,0,0,0,0,0,0,0,0,0,-1.8981,-1.8981,0,-1.9002,-1.9002,-1.9002,-1.8823,-1.8818,-1.8813,-1.8808,-1.8835,-1.884,-1.8846,0,0,0,0,0,0,0,0,0,0,0,0,0,0,0,0,0,0,0,0,0,0,0,0,0,0,0,0,0,0,0,0,0,0,0,0,0,0,0,0,0,0,0,0,0,0,0,0,0,0,0,0,0,0,0,0,0,0,0,0,0,0,0,0,0,0,0,0,0]}],[{"header":{"parameterUnit":"kt","parameterCategory":2,"dx":1,"dy":1,"la1":30.253999710083008,"la2":30.299108505249023,"lo1":-89.0895004272461,"lo2":-89.04439544677734,"nx":28,"ny":28,"refTime":"2022-09-19T21:00:00:Z","depth":0,"parameterNumber":2,"parameterNumberName":"V-component_of_WINDS"},"data":[-2.6321,-2.6449,-2.6544,-2.6733,-2.6851,-2.6998,-2.708,-2.7198,-2.7315,-2.7501,-2.7625,-2.7734,-2.7889,-2.806,-2.8199,-2.8245,-2.8297,-2.8273,-2.8331,-2.8352,-2.8361,-2.837,-2.8347,-2.8283,-2.8283,-2.8296,-2.8296,-2.8296,-2.633,-2.6448,-2.6576,-2.6764,-2.6875,-2.6957,-2.7113,-2.7201,-2.7329,-2.7474,-2.7602,-2.7773,-2.792,-2.8087,-2.8245,-2.8307,-2.8354,-2.8343,-2.834,-2.8364,-2.839,-2.8364,-2.8302,-2.8302,-2.8302,-2.8302,-2.8302,-2.8302,-2.6373,-2.6445,-2.6615,-2.6755,-2.6876,-2.7002,-2.7088,-2.7221,-2.7347,-2.7524,-2.7613,-2.776,-2.7924,-2.8161,-2.8264,-2.8382,-2.8412,-2.8429,-2.8434,-2.8437,-2.8427,-2.8397,-2.8413,-2.8413,-2.8414,-2.8414,-2.8415,0,-2.6434,-2.6509,-2.6638,-2.6796,-2.6903,-2.7035,-2.7171,-2.7227,-2.742,-2.7515,-2.7663,-2.7765,-2.7964,-2.8114,-2.8283,-2.8388,-2.8482,-2.8502,-2.8515,-2.8474,-2.8416,-2.845,-2.8489,-2.85,-2.8502,-2.8502,-2.8503,-2.8503,-2.6485,-2.6557,-2.6781,-2.6859,-2.6958,-2.708,-2.7174,-2.7338,-2.743,-2.7622,-2.7678,-2.783,-2.796,-2.818,-2.8334,-2.8483,-2.853,-2.8525,-2.8553,-2.8512,-2.8533,-2.8527,-2.8537,-2.8515,-2.8514,-2.8513,-2.8512,0,-2.6505,-2.6662,-2.6804,-2.702,-2.7077,-2.7144,-2.7329,-2.7408,-2.7529,-2.7654,-2.7693,-2.7882,-2.8024,-2.8181,-2.8373,-2.8451,-2.8565,-2.8607,-2.8511,-2.8528,-2.854,-2.8537,-2.8549,-2.856,-2.8626,-2.8625,-2.8625,0,-2.661,-2.6698,-2.6928,-2.7002,-2.7107,-2.7271,-2.7369,-2.7483,-2.7628,-2.7728,-2.7861,-2.7951,-2.8138,-2.8252,-2.8367,-2.8488,-2.8524,-2.8591,-2.862,-2.858,-2.8571,-2.8631,-2.8634,-2.8682,-2.8682,-2.8682,-2.8682,0,-2.6625,-2.6851,-2.6974,-2.705,-2.7289,-2.7343,-2.7444,-2.7608,-2.7697,-2.7838,-2.7898,-2.805,-2.8133,-2.8248,-2.8394,-2.8408,-2.8545,-2.8595,-2.8614,-2.861,-2.8637,-2.8633,-2.8604,-2.8681,-2.8681,-2.8681,-2.8681,0,-2.6735,-2.6875,-2.7027,-2.7231,-2.7283,-2.7363,-2.7525,-2.763,-2.7792,-2.787,-2.7982,-2.809,-2.8208,-2.8246,-2.8411,-2.8388,-2.8463,-2.8538,-2.8542,-2.8563,-2.8601,-2.8565,-2.852,-2.8522,-2.8581,-2.858,-2.858,0,-2.6711,-2.6907,-2.7049,-2.7191,-2.7303,-2.7447,-2.7539,-2.7678,-2.7791,-2.7903,-2.8027,-2.8152,-2.8214,-2.8275,-2.8336,-2.8469,-2.8499,-2.847,-2.8629,-2.8633,-2.8584,-2.8544,-2.8499,-2.8512,-2.8571,-2.8572,-2.8573,0,-2.6711,-2.7001,-2.7016,-2.7112,-2.7323,-2.7418,-2.7522,-2.7684,-2.7751,-2.7892,-2.7986,-2.8165,-2.822,-2.8319,-2.8422,-2.8477,-2.8483,-2.8528,-2.8535,-2.8516,-2.8579,-2.8536,-2.8538,-2.8541,-2.8542,-2.8543,-2.8566,0,-2.6844,-2.6963,-2.701,-2.7213,-2.7311,-2.7408,-2.7577,-2.7658,-2.7748,-2.7865,-2.8003,-2.8158,-2.8321,-2.8364,-2.8452,-2.8528,-2.854,-2.8596,-2.8645,-2.8617,-2.8629,-2.8633,-2.8614,-2.8616,-2.8618,-2.862,0,0,-2.6782,-2.6955,-2.7109,-2.7217,-2.7309,-2.7457,-2.7546,-2.7652,-2.7864,-2.7924,-2.7953,-2.8228,-2.8352,-2.8502,-2.8506,-2.8571,-2.8601,-2.8603,-2.8628,-2.8628,-2.8629,-2.8639,-2.8641,-2.8623,-2.8624,-2.8625,-2.8626,0,-2.6866,-2.6991,-2.7076,-2.7194,-2.7375,-2.7494,-2.7514,-2.7719,-2.7797,-2.7933,-2.8053,-2.8156,-2.8369,-2.8486,-2.8573,-2.859,-2.8674,-2.8626,-2.858,-2.8643,-2.864,-2.8639,-2.8647,-2.8647,-2.863,-2.863,-2.863,0,-2.6898,-2.7049,-2.7108,-2.7325,-2.7444,-2.7555,-2.7649,-2.7762,-2.7847,-2.8001,-2.8134,-2.8242,-2.8412,-2.8531,-2.859,-2.8618,-2.8731,-2.8724,-2.8716,-2.8726,-2.8796,-2.8792,-2.8789,-2.8828,-2.8828,-2.8828,0,0,-2.6948,-2.7058,-2.7272,-2.7355,-2.7422,-2.7601,-2.7677,-2.7776,-2.7925,-2.7985,-2.8126,-2.8267,-2.8394,-2.8473,-2.8601,-2.8707,-2.8756,-2.8741,-2.8732,-2.8724,-2.8729,-2.8796,-2.8793,-2.8828,-2.8828,-2.8828,0,0,-2.6972,-2.7223,-2.7288,-2.7406,-2.7545,-2.776,-2.7805,-2.789,-2.8022,-2.803,-2.8201,-2.8246,-2.836,-2.8461,-2.8442,-2.8621,-2.8666,-2.8674,-2.8551,-2.8542,-2.8533,-2.8507,-2.8559,0,0,0,0,0,-2.7144,-2.7192,-2.7248,-2.7293,-2.7567,-2.7729,-2.7765,-2.7908,-2.7938,-2.797,-2.8102,-2.8187,-2.8487,-2.8474,-2.8515,-2.8535,-2.8828,-2.8828,-2.8828,-2.8695,-2.8684,-2.8674,0,0,0,0,0,0,-2.7163,-2.7218,-2.7248,-2.7462,-2.7525,-2.7728,-2.7811,-2.7851,-2.7938,-2.7952,-2.8159,-2.8194,-2.8318,-2.8462,-2.8497,-2.8513,-2.8547,-2.8828,-2.8828,-2.8828,-2.8691,-2.8682,-2.8674,0,0,0,0,0,-2.7179,-2.7223,-2.7624,-2.7463,-2.7517,-2.7719,-2.781,-2.7845,-2.7914,-2.8118,-2.8155,-2.8014,-2.8314,-2.8354,-2.8484,-2.8494,-2.8524,-2.8536,-2.8828,-2.8828,-2.8828,-2.8687,0,0,0,0,0,0,-2.7191,-2.7256,-2.7639,-2.7661,-2.7456,-2.7711,-2.7756,-2.7838,-2.8077,-2.8115,-2.7981,-2.799,-2.8312,-2.8344,-2.8373,-2.8479,-2.8505,-2.8517,-2.8525,-2.8828,-2.8828,-2.8828,0,0,0,0,0,0,-2.7233,-2.7273,-2.765,-2.7633,-2.7655,-2.7702,-2.7742,-2.7873,-2.8078,-2.7928,-2.7943,-2.7982,-2.8267,-2.8336,-2.836,-2.8558,-2.849,-2.8502,-2.8511,-2.8516,-2.8828,-2.8828,0,0,0,0,0,0,-2.7253,-2.7288,-2.7628,-2.7645,-2.7664,-2.7921,-2.782,-2.8092,-2.8064,-2.7915,-2.8066,-2.8066,-2.8257,-2.8285,-2.835,-2.8537,-2.8553,-2.849,-2.8499,-2.8505,-2.8509,0,0,0,0,0,0,0,-2.7269,-2.7003,-2.7508,-2.7654,-2.7671,-2.7864,-2.787,-2.7876,-2.8064,-2.8065,-2.8065,-2.8066,-2.842,-2.8433,-2.8447,-2.852,0,0,-2.8489,-2.8495,0,0,0,0,0,0,0,0,-2.6992,-2.7,-2.7509,-2.7513,-2.7518,-2.7865,-2.787,-2.7875,-2.8064,-2.8065,-2.8065,-2.8066,-2.8423,-2.8434,-2.8445,0,0,0,0,0,0,0,0,0,0,0,0,0,0,0,-2.7509,-2.7513,0,-2.7866,-2.787,-2.7874,-2.8064,-2.8065,-2.8065,-2.8066,-2.8426,-2.8435,-2.8444,0,0,0,0,0,0,0,0,0,0,0,0,0,0,0,0,0,0,0,0,0,0,0,0,0,0,0,0,0,0,0,0,0,0,0,0,0,0,0,0,0,0,0,0,0,0,0,0,0,0,0,0,0,0,0,0,0,0,0,0,0,0,0,0,0,0,0,0,0]}]]]